This is the latest recevied weather packets stored in our database for station/object DK8DX-13. If no packets are shown the sender has not sent any weather packets the latest 10 day(s).
| Time | Temp. | Humidity | Pressure | Rain* | Wind** | Luminosity | Snow |
|---|---|---|---|---|---|---|---|
| 1777458107 | 16.67° C | 32% | 1029.2 hPa | 0 mm | - | - | - |
| 1777457842 | 17.22° C | 31% | 1029.3 hPa | 0 mm | - | - | - |
| 1777457582 | 16.67° C | 32% | 1029.2 hPa | 0 mm | - | - | - |
| 1777457321 | 16.67° C | 34% | 1029.3 hPa | 0 mm | - | - | - |
| 1777457067 | 16.11° C | 36% | 1029.4 hPa | 0 mm | - | - | - |
| 1777456782 | 16.11° C | 35% | 1029.2 hPa | 0 mm | - | - | - |
| 1777456533 | 16.11° C | 36% | 1029.4 hPa | 0 mm | - | - | - |
| 1777456272 | 16.11° C | 36% | 1029.4 hPa | 0 mm | - | - | - |
| 1777455987 | 16.11° C | 36% | 1029.4 hPa | 0 mm | - | - | - |
| 1777455742 | 15.56° C | 36% | 1029.4 hPa | 0 mm | - | - | - |
| 1777455472 | 16.11° C | 34% | 1029.3 hPa | 0 mm | - | - | - |
| 1777455217 | 16.11° C | 35% | 1029.2 hPa | 0 mm | - | - | - |
| 1777454942 | 16.11° C | 36% | 1029.3 hPa | 0 mm | - | - | - |
| 1777454672 | 15.56° C | 35% | 1029.3 hPa | 0 mm | - | - | - |
| 1777454397 | 16.11° C | 36% | 1029.3 hPa | 0 mm | - | - | - |
| 1777454102 | 15.56° C | 37% | 1029.2 hPa | 0 mm | - | - | - |
| 1777453855 | 15.56° C | 37% | 1029.2 hPa | 0 mm | - | - | - |
| 1777453597 | 15.56° C | 37% | 1029.2 hPa | 0 mm | - | - | - |
| 1777453332 | 15.56° C | 37% | 1029.2 hPa | 0 mm | - | - | - |
| 1777453070 | 15.56° C | 37% | 1029 hPa | 0 mm | - | - | - |
| 1777452782 | 15.56° C | 37% | 1029.2 hPa | 0 mm | - | - | - |
| 1777452512 | 15.56° C | 37% | 1029.2 hPa | 0 mm | - | - | - |
| 1777452227 | 15.56° C | 38% | 1029.2 hPa | 0 mm | - | - | - |
| 1777451972 | 15.56° C | 38% | 1029.1 hPa | 0 mm | - | - | - |
| 1777451709 | 15.56° C | 38% | 1029 hPa | 0 mm | - | - | - |
* Rain latest hour (hover to see other rain measurements)
** Current wind speed in m/s (hover to see current wind gust speed)